STARLINK-5331 (55280 NORAD) Tracking and Keplerian Element Data

This shows tracking and keplerian element data for the satellite.

Feedback or suggestion? Click here.




ElementValue
Catalog55280
NameSTARLINK-5331
Epoch Orbit1704
Epoch Day127.07544273
Epoch Year2023
RAAN140.5534
Inclination69.9982
Eccentricity0.0003406
Argument of Perigee272.2848
Mean Anonmoly87.7921
Mean Motion14.98328455
Decay Rate-8.1E-07
L11 55280U 23010M 23127.07544273 -.00000081 00000+0 99786-6 0 9997
L22 55280 69.9982 140.5534 0003406 272.2848 87.7921 14.98328455 17048



Live tracking and technical data element details for STARLINK-5331 (NORAD 55280). STARLINK-5331 can be tracked NOW for your location showing map with azimuth and elevation plus other details from your city location.







IsCatalogInMostPopularTable: catalog: 55280, numindb: -1

Insert: records affected: 1


GetName: 55280 STARLINK-5331

Hit Count: inserted at: Mon, 05 Jun 2023 20:47:01 GMT